Location: Aufkirchen
(47.9603°N, 11.3653°E)
Time: 14:15:13
(UTC+01:00)

Transit 2A Rocket - Pass Details

Date: 07 December 2020
Orbit: 592 x 910 km, 66.7° (Epoch: 21 January)

Event Time Altitude Azimuth Distance (km) Brightness Sun altitude
Rises 05:44:48 0° 323° (NW) 3,253 - -20.1°
Exits shadow 05:48:22 - 349° (NNW) 2,377 7.3 -19.5°
Reaches altitude 10° 05:49:22 10° 359° (N) 2,228 7.3 -19.3°
Maximum altitude 05:50:45 11° 15° (NNE) 2,130 7.3 -19.1°
Drops below altitude 10° 05:52:06 10° 31° (NNE) 2,169 7.6 -18.9°
Sets 05:56:19 0° 68° (ENE) 2,997 9.0 -18.2°
